XW-3 (CAS-9)

Last updated on Sat Sep 05 2026 00:03:18 GMT+0000 (Coordinated Universal Time)

1 50466U 21131B 26247.74604199 .00000285 00000+0 10152-3 0 9996 2 50466 98.4968 339.7039 0003482 204.0537 156.0490 14.41418524246572
UTC large
Height (km)
Speed (km/s)
/
Latitude / Longitude
Inclination (degrees)
Orbital Period (minutes)
Azimuth
Elevation
Range (km)
Doppler Factor

Next 0 passes for location: London (51.5072 / 0.1276)

No passes found over London.
XW-3 (CAS-9)